Location: Le Rocchette
(44.3500°N, 7.8333°E)
Time: 13:49:06
(UTC+00:00)

COSMOS 2487 - Visible Passes

Search period start: 18 February 2020 00:00
Search period end: 28 February 2020 00:00
Orbit: 442 x 447 km, 74.7° (Epoch: 18 February)

Date Brightness Start Highest point End Pass type
(mag) Time Alt. Az. Time Alt. Az. Time Alt. Az.
21 Feb 4.5 19:12:45 10° NNW 19:14:00 21° N 19:14:00 21° N visible
22 Feb 3.5 18:35:23 10° N 18:37:47 29° NE 18:37:47 29° NE visible
22 Feb 5.9 20:11:15 10° WNW 20:11:22 11° WNW 20:11:22 11° WNW visible
23 Feb 4.0 17:58:22 10° NNE 18:00:45 17° ENE 18:01:44 15° E visible
23 Feb 4.4 19:32:50 10° NW 19:35:21 28° W 19:35:21 28° W visible
24 Feb 2.6 18:54:57 10° NNW 18:58:23 67° WSW 18:59:32 38° S visible
25 Feb 2.4 18:17:23 10° N 18:20:47 54° ENE 18:24:03 11° SSE visible
26 Feb 3.4 17:40:04 10° N 17:43:04 26° ENE 17:46:02 10° ESE visible
26 Feb 5.2 19:15:31 10° NW 19:17:58 18° W 19:20:24 10° SW visible
27 Feb 4.0 18:37:17 10° NW 18:40:30 37° WSW 18:43:41 10° S visible
